Location: Unnamed
(48.8836°N, 1.0859°W)
Time: 13:38:46
(UTC+02:00)

ISS - Pass Details

Date: 28 September 2021
Orbit: 417 x 423 km, 51.6° (Epoch: 16 October)

Event Time Altitude Azimuth Distance (km) Brightness Sun altitude
Rises 22:32:02 0° 290° (WNW) 2,368 1.3 -26.6°
Reaches altitude 10° 22:34:10 10° 286° (WNW) 1,502 0.0 -26.9°
Enters shadow 22:35:32 22° 277° (W) 978 -1.3 -27.1°
